Flag for China Weather past 2 weeks in Tianjin, Tianjin Municipality, China

Now
75 °F

Clear.


Feels Like: 75 °F
Forecast: 74 / 84 °F
Wind: 3 mph from Northeast

Location: Tianjin / Zhangguizhu

Current Time: Jul 31, 2015 at 2:41:57 AM

Latest Report: Jul 31, 2015 at 2:00 AM


Visibility: 5 mi

Pressure: 29.71 "Hg

Humidity: 83%

Dew point: 70 °F

Location of TianjinLocation

Historic Weather in Tianjin — Graph

°F

Tianjin temperature yesterday

Maximum temperature yesterday: 90 °F (at 1:00 PM)
Minimum temperature yesterday: 75 °F (at 2:00 AM)
Average temperature yesterday: 80 °F

Past Weeks' High & Low Weather Summary

 TemperatureHumidityPressure
High95 °F (Jul 26, 2:30 PM)94% (Jul 18, 5:30 AM)29.80 "Hg (Jul 18, 5:30 AM)
Low70 °F (Jul 18, 4:30 AM)44% (Jul 26, 2:30 PM)29.50 "Hg (Jul 25, 4:30 PM)
Average80 °F73%29.65 "Hg
* Reported Jul 16 1:00 AM — Jul 31 1:30 AM, Tianjin, Weather by CustomWeather, © 2015

Note: Actual official high and low records may vary slightly from our data, if they occured in-between our weather recording intervals... More about our weather records

Advertising

Tianjin weather history for previous 24 hours

 ConditionsComfort  
Time TempWeatherWind HumidityBarometerVisibility
1:30 AM
Fri, Jul 31
75 °FClear.1 mph83%29.71 "Hg10 mi
1:00 AM73 °FPassing clouds.3 mph89%29.71 "HgN/A
12:30 AM75 °FClear.6 mph83%29.71 "Hg10 mi
12:00 AM75 °FClear.8 mph83%29.68 "Hg10 mi
11:30 PM
Thu, Jul 30
75 °FClear.13 mph78%29.68 "Hg10 mi
11:00 PM77 °FSprinkles. Clear.13 mph83%29.68 "Hg4 mi
10:30 PM77 °FSprinkles. Passing clouds.6 mph83%29.68 "Hg4 mi
10:00 PM77 °FThunderstorms. Passing clouds.3 mph83%29.68 "HgN/A
9:30 PM77 °FThunderstorms. Passing clouds.8 mph83%29.68 "HgN/A
9:00 PM75 °FThunderstorms. Passing clouds.6 mph83%29.68 "HgN/A
8:30 PM77 °FPassing clouds.13 mph83%29.68 "HgN/A
8:00 PM79 °FThunderstorms. Passing clouds.13 mph84%29.68 "HgN/A
7:30 PM81 °FThunderstorms. Partly cloudy.6 mph74%29.65 "HgN/A
7:00 PM82 °FPartly sunny.6 mph66%29.65 "HgN/A
6:30 PM82 °FPassing clouds.6 mph66%29.65 "HgN/A
6:00 PM84 °FSunny.10 mph62%29.62 "Hg10 mi
5:30 PM84 °FSunny.8 mph62%29.62 "Hg10 mi
5:00 PM84 °FPassing clouds.8 mph62%29.62 "HgN/A
4:30 PM86 °FSunny.10 mph59%29.62 "Hg10 mi
4:00 PM86 °FScattered clouds.10 mph59%29.62 "HgN/A
3:30 PM86 °FPartly sunny.10 mph59%29.65 "HgN/A
3:00 PM84 °FPartly sunny.13 mph66%29.65 "HgN/A
2:30 PM86 °FPartly sunny.10 mph62%29.65 "HgN/A
2:00 PM86 °FPartly sunny.8 mph62%29.65 "HgN/A
1:30 PM86 °FPartly sunny.3 mph55%29.65 "HgN/A
1:00 PM90 °FPartly sunny.3 mph55%29.65 "HgN/A
12:30 PM88 °FPartly sunny.6 mph55%29.65 "HgN/A
11:30 AM84 °FPartly sunny.3 mph62%29.65 "HgN/A
11:00 AM84 °FScattered clouds.6 mph66%29.65 "HgN/A
10:30 AM84 °FScattered clouds.8 mph66%29.65 "HgN/A
10:00 AM82 °FPassing clouds.8 mph66%29.68 "HgN/A
9:30 AM81 °FScattered clouds.8 mph74%29.65 "HgN/A
9:00 AM81 °FScattered clouds.8 mph74%29.65 "HgN/A
8:30 AM81 °FScattered clouds.8 mph74%29.65 "HgN/A
8:00 AM81 °FPassing clouds.10 mph74%29.65 "HgN/A
7:30 AM79 °FFog.8 mph84%29.65 "Hg2 mi
7:00 AM77 °FFog.8 mph89%29.65 "Hg1 mi
6:30 AM77 °FFog.1 mph89%29.62 "Hg1 mi
6:00 AM75 °FFog.1 mph94%29.62 "Hg2 mi
5:30 AM75 °FFog.3 mph89%29.62 "Hg2 mi
5:00 AM75 °FFog.3 mph89%29.62 "Hg2 mi
4:30 AM75 °FFog.6 mph89%29.62 "Hg2 mi
4:00 AM75 °FFog.8 mph89%29.59 "Hg2 mi
3:30 AM75 °FFog.6 mph89%29.59 "Hg3 mi
3:00 AM77 °FFog.1 mph83%29.59 "Hg3 mi
2:30 AM75 °FFog.8 mph89%29.56 "Hg3 mi
2:00 AM75 °FFog.10 mph89%29.53 "Hg3 mi
Weather by CustomWeather, © 2015

See weather overviewHow to use our weather pages